AO-07 1 07530U 74089B 26074.29269516 -.00000017 00000-0 18715-3 0 9996 2 07530 101.9965 86.5429 0011941 311.2558 73.8139 12.53696525348755 UO-11 1 14781U 84021B 26074.17847502 .00001867 00000-0 19671-3 0 9998 2 14781 97.7955 40.8755 0008762 127.6246 232.5769 14.90527996243123 AO-27 1 22825U 93061C 26074.16118923 .00000119 00000-0 62219-4 0 9993 2 22825 98.6970 141.5751 0008689 23.9428 336.2157 14.30915039693553 FO-29 1 24278U 96046B 26074.19159530 .00000020 00000-0 58263-4 0 9990 2 24278 98.5374 295.8667 0349590 340.4957 18.3080 13.53269112460458 GO-32 1 25397U 98043D 26074.21911521 .00000090 00000-0 59216-4 0 9997 2 25397 99.0031 64.6273 0002206 110.6069 249.5346 14.24407785437954 ISS 1 25544U 98067A 26074.19246378 .00009711 00000-0 18872-3 0 9996 2 25544 51.6330 45.1519 0006364 192.7288 167.3540 15.48288531557188 NO-44 1 26931U 01043C 26074.28584824 .00000146 00000-0 85473-4 0 9991 2 26931 67.0497 127.1397 0006991 264.9962 95.0342 14.31915099277000 SO-50 1 27607U 02058C 26074.28269332 .00001914 00000-0 24290-3 0 9996 2 27607 64.5527 59.4737 0075331 279.6734 79.5868 14.82809007250532 CO-55 1 27844U 03031E 26074.25416618 .00000369 00000-0 17886-3 0 9995 2 27844 98.6777 83.9839 0010767 98.1301 262.1099 14.24271187178309 RS-22 1 27939U 03042A 26074.30191323 .00001689 00000-0 26948-3 0 9996 2 27939 98.3445 256.0190 0010816 201.0915 283.2104 14.73272833201724 CO-65 1 32785U 08021C 26074.21944096 .00007912 00000-0 51149-3 0 9992 2 32785 97.8207 53.7902 0008985 0.4138 359.7095 15.08460261971022 CO-66 1 32791U 08021J 26073.95956670 .00024478 00000-0 86115-3 0 9997 2 32791 97.7514 67.6101 0000641 328.6940 31.4261 15.29337445972874 RS-30 1 32953U 08025A 26074.26087133 .00000055 00000-0 32359-3 0 9991 2 32953 82.5006 53.8559 0019741 153.1564 207.0542 12.43176218808020 SRMSAT 1 37841U 11058D 26074.22114294 .00000448 00000-0 99437-4 0 9994 2 37841 19.9715 268.2252 0011718 250.1880 266.5988 14.11549976744529 ZACUBE-1 1 39417U 13066B 26073.86543069 .00005958 00000-0 47004-3 0 9994 2 39417 97.8157 35.7145 0043139 202.7590 157.1722 15.00383064666589 Delfi-N3xt 1 39428U 13066N 26074.30750653 .00008026 00000-0 71977-3 0 9990 2 39428 97.8341 354.7990 0076808 157.7395 202.7189 14.93761756660609 GOMX-1 1 39430U 13066Q 26074.27353846 .00002366 00000-0 36139-3 0 9994 2 39430 97.6571 280.6304 0129888 19.6926 340.9229 14.69121970656127 LO-74 1 39440U 13066AA 26074.12629041 .00006928 00000-0 65006-3 0 9995 2 39440 97.8812 22.8074 0057937 341.0084 18.8974 14.93028944662950 AO-73 1 39444U 13066AE 26074.14862953 .00009801 00000-0 63026-3 0 9995 2 39444 97.8183 43.7800 0037880 160.7434 199.5236 15.08016483665485 DTUSAT-2 1 40030U 14033W 26074.21255798 .00009210 00000-0 51585-3 0 9995 2 40030 98.0847 66.0830 0007755 181.9247 178.1954 15.13645709638467 LILACSAT-2 1 40908U 15049K 26074.33209875 .00018579 00000-0 35358-3 0 9993 2 40908 97.4801 107.7531 0006138 220.3158 139.7637 15.48257794581210 Horyu-4 1 41340U 16012D 26073.57392746 .00121667 00000-0 12267-2 0 9996 2 41340 30.9920 33.8282 0003998 201.4323 158.6163 15.63882335555871 Lapan A3 1 41603U 16040E 26074.31419635 .00004375 00000-0 14187-3 0 9999 2 41603 97.1482 73.5965 0010324 3.6258 356.5057 15.32440071540430 CAS-2T 1 41847U 16066G 26074.17922108 .00001317 00000-0 19238-3 0 9990 2 41847 98.3876 150.9686 0343440 54.8907 308.3972 14.44487009491224 TechnoSat 1 42829U 17042E 26074.01568472 .00004080 00000-0 29582-3 0 9992 2 42829 97.4142 235.3576 0018982 58.2057 302.1015 15.04330295472546 AO-91 1 43017U 17073E 26073.62831316 .00013646 00000-0 61706-3 0 9994 2 43017 97.4861 302.8209 0153791 295.0415 63.4915 15.10996825451103 S-Net D 1 43186U 18014G 26074.22010048 .00007589 00000-0 40151-3 0 9995 2 43186 97.5434 339.6284 0008219 356.4306 3.6867 15.15708213444520 S-Net B 1 43187U 18014H 26074.22975387 .00006870 00000-0 36411-3 0 9998 2 43187 97.5442 339.6215 0008741 351.4504 8.6578 15.15680055444526 S-Net A 1 43188U 18014J 26074.21941973 .00007615 00000-0 40275-3 0 9993 2 43188 97.5451 339.8033 0008624 351.8173 8.2918 15.15715408444528 S-Net C 1 43189U 18014K 26074.23312408 .00006840 00000-0 36252-3 0 9990 2 43189 97.5466 339.8769 0009755 342.8212 17.2689 15.15673094443079 Ten-Koh 1 43677U 18084G 26074.30272761 .00002750 00000-0 21183-3 0 9997 2 43677 98.0791 262.7254 0011808 76.5448 283.7091 15.02499049402068 PO-101 1 43678U 18084H 26074.32578938 .00002306 00000-0 19043-3 0 9994 2 43678 98.1040 266.5938 0012392 109.9179 250.3379 14.99992076402140 QO-100 1 43700U 18090A 26074.28662479 .00000143 00000-0 00000-0 0 9993 2 43700 0.0123 121.0161 0001078 231.5061 309.3554 1.00272277 26733 MinXSS-2 1 43758U 18099A 26074.17265500 .00038727 00000-0 94469-3 0 9991 2 43758 97.4623 148.1160 0007832 237.3290 122.7202 15.40747614399621 AO-95 1 43770U 18099N 26074.15676328 .00015185 00000-0 61803-3 0 9996 2 43770 97.4505 134.8488 0007803 326.4280 33.6462 15.24575893398881 SNUSat 2 1 43782U 18099AA 26074.06418541 .00011005 00000-0 50897-3 0 9998 2 43782 97.4191 128.9434 0008978 263.0214 97.0000 15.20287418398721 SnugLite 1 43784U 18099AC 26074.05379106 .00015646 00000-0 62915-3 0 9991 2 43784 97.4000 129.3530 0001489 239.4502 120.6589 15.24997827398968 ITASat 1 1 43786U 18099AE 26074.04894608 .00009119 00000-0 45372-3 0 9997 2 43786 97.4161 127.4688 0011729 326.5481 33.5011 15.17773296398622 EAGLET 1 1 43790U 18099AJ 26073.71595006 .00005475 00000-0 32072-3 0 9999 2 43790 97.4363 125.8807 0010012 318.2365 41.8100 15.12163725398052 ESEO 1 43792U 18099AL 26074.04457741 .00002226 00000-0 16541-3 0 9995 2 43792 97.4110 115.4255 0010358 298.3523 61.6658 15.03942040397651 JO-97 1 43803U 18099AX 26073.98244309 .00022678 00000-0 76927-3 0 9991 2 43803 97.4249 136.6593 0005021 233.9097 126.1679 15.30525068399209 Suomi 100 1 43804U 18099AY 26073.66601010 .00018630 00000-0 72214-3 0 9991 2 43804 97.4311 134.5154 0009099 249.4702 110.5561 15.26153351398993 ISAT 1 43879U 18111D 26074.07699160 .00074526 00000-0 12369-2 0 9997 2 43879 97.5900 3.1217 0001996 291.0481 69.0557 15.51857163396515 UWE-4 1 43880U 18111E 26074.26240051 .00037236 00000-0 91919-3 0 9997 2 43880 97.5851 358.7534 0006541 316.2258 43.8468 15.40404364396291 Sparrow 1 43881U 18111F 26074.27356254 .00085564 00000-0 12304-2 0 9999 2 43881 97.6106 7.7642 0002832 31.8656 328.2769 15.55779791396691 Prox-1 1 44339U 19036A 26073.93060939 .00016555 00000-0 17200-2 0 9993 2 44339 23.9962 22.7412 0006245 24.0827 335.9963 14.88214262359401 Taurus 1 1 44530U 19059C 26074.27243495 .00009321 00000-0 15287-2 0 9995 2 44530 98.6310 233.3978 0008517 239.7785 120.2577 14.70916552344838 TO-108 1 44881U 19093C 26074.27326156 .00000582 00000-0 71946-4 0 9994 2 44881 97.7602 148.7788 0014537 40.7466 319.4834 14.86352333337461 RS-44 1 44909U 19096E 26074.26702237 .00000018 00000-0 27334-4 0 9991 2 44909 82.5213 42.1072 0217694 4.2999 355.9905 12.79747544290330 SALSAT 1 46495U 20068K 26074.23852363 .00010372 00000-0 37867-3 0 9992 2 46495 97.8857 71.6917 0008034 272.6742 87.3577 15.28307413301005 CSS (TIANHE-1) 1 48274U 21035A 26073.00269975 .00029757 00000-0 34787-3 0 9994 2 48274 41.4663 181.9138 0006689 299.3968 60.6202 15.60904690278280 CUTE 1 49263U 21088D 26074.23501330 .00049702 00000-0 46131-3 0 9999 2 49263 97.4220 166.7488 0003039 287.6462 72.4467 15.67312317247740 TeikyoSat 4 1 49396U 21102B 26074.04606777 .00002889 00000-0 18565-3 0 9998 2 49396 97.3786 107.1599 0010598 255.2231 104.7825 15.09145269238527 Z-Sat 1 49399U 21102E 26074.32369409 .00005715 00000-0 28763-3 0 9992 2 49399 97.3456 112.4903 0015964 210.0527 149.9793 15.17485108239200 KOSEN 1 1 49402U 21102H 26074.05422974 .00010818 00000-0 42941-3 0 9998 2 49402 97.3327 118.0721 0014370 173.6337 186.5087 15.25426055239663 HO-113 1 50466U 21131B 26074.26621427 .00000540 00000-0 18075-3 0 9991 2 50466 98.4952 167.1888 0004633 35.2857 324.8638 14.41258618221587 SNUGLITE 2 1 52899U 22065F 26074.27555893 .00001261 00000-0 24898-3 0 9995 2 52899 98.2041 219.3585 0006624 325.6288 34.4485 14.64146569197252 UmKA 1 (RS40S) 1 57172U 23091G 26074.30082490 .00008274 00000-0 38966-3 0 9998 2 57172 97.5173 133.3843 0014655 88.6630 271.6284 15.19689977149740 CubeBel-2 (EU11S) 1 57175U 23091K 26074.27731316 .00014608 00000-0 55465-3 0 9996 2 57175 97.5168 136.7688 0011785 89.3995 270.8594 15.26868843149962 RS-38S 1 57189U 23091Z 26074.31201015 .00018479 00000-0 58116-3 0 9990 2 57189 97.5192 142.0933 0008420 55.3241 304.8794 15.32983902150295 SONATE-2 1 59112U 24043Q 26074.14123855 .00044182 00000-0 73685-3 0 9990 2 59112 97.5394 219.3350 0007926 184.6236 175.4944 15.51822579113277 GRBBeta 1 60237U 24128C 26073.75386973 .00006770 00000-0 46484-3 0 9990 2 60237 61.9898 187.3918 0050938 115.0395 245.5998 15.05863437 92046 Curium One 1 60242U 24128H 26073.71668835 .00013606 00000-0 79805-3 0 9991 2 60242 61.9793 179.9832 0050653 111.4422 249.2087 15.10974934 92178 ROBUSTA-3A 1 60243U 24128J 26074.02792600 .00012810 00000-0 76798-3 0 9999 2 60243 61.9864 180.8517 0051216 109.2496 251.4149 15.10206811 92199 CatSat 1 60246U 24125J 26074.30824483 .00052303 00000-0 93898-3 0 9996 2 60246 97.2201 286.2054 0027836 167.3122 192.8837 15.49292704 92817 HYPERVIEW-1G (RS66S) 1 61772U 24199AP 26074.27876308 .00073361 00000-0 94295-3 0 9990 2 61772 97.3081 310.4993 0006355 256.3974 103.6575 15.58830903119973 AO-123 1 61781U 24199AY 26074.29067000 .00010673 00000-0 32404-3 0 9994 2 61781 97.3154 303.8249 0012472 287.7789 72.2092 15.34187945119524 JINJUSat 1B 1 63210U 25052A 26074.22163943 .00019571 00000-0 66638-3 0 9990 2 63210 97.4117 331.0073 0005386 71.0951 289.0873 15.30430954 55714 NUSHSAT 1 1 63211U 25052B 26074.19873208 .00025013 00000-0 80537-3 0 9991 2 63211 97.4098 331.2768 0005318 73.3045 286.8780 15.32186135 55735 TEVEL2-4 1 63213U 25052D 26074.24949294 .00022504 00000-0 74800-3 0 9996 2 63213 97.4018 330.6659 0004786 85.4822 274.6966 15.31185392 55729 TEVEL2-5 1 63214U 25052E 26074.26089120 .00021984 00000-0 73371-3 0 9995 2 63214 97.4013 330.6488 0004759 85.0932 275.0853 15.31058896 55721 TEVEL2-6 1 63215U 25052F 26074.27086559 .00021973 00000-0 73423-3 0 9996 2 63215 97.4018 330.6446 0004849 86.6586 273.5210 15.31018714 55728 TEVEL2-1 1 63217U 25052H 26074.27065009 .00021393 00000-0 72443-3 0 9992 2 63217 97.3993 330.3708 0004963 94.8167 265.3640 15.30592341 55719 TEVEL2-3 1 63218U 25052J 26074.26809667 .00021410 00000-0 72418-3 0 9990 2 63218 97.3998 330.3805 0004950 95.7764 264.4042 15.30628704 55711 TEVEL2-2 1 63219U 25052K 26074.20592461 .00021410 00000-0 72501-3 0 9999 2 63219 97.3992 330.3072 0004908 94.9965 265.1836 15.30592748 55705 TEVEL2-9 1 63237U 25052AD 26074.26598191 .00020150 00000-0 71928-3 0 9993 2 63237 97.4057 329.9270 0008361 109.3936 250.8209 15.28864884 55668 TEVEL2-7 1 63238U 25052AE 26074.22562566 .00020145 00000-0 72400-3 0 9997 2 63238 97.4059 329.8375 0008545 108.9982 251.2184 15.28640447 55659 TEVEL2-8 1 63239U 25052AF 26074.23272593 .00019073 00000-0 68613-3 0 9996 2 63239 97.4063 329.8248 0008498 109.9098 250.3058 15.28620496 55652 HYDRA-W 1 63490U 25052BL 26074.20587317 .00261492 00000-0 25142-2 0 9998 2 63490 97.3926 335.6277 0009108 97.7539 262.4755 15.65704777 56057 HADES-ICM (SO-125) 1 63492U 25052BN 26074.22212562 .00168690 00000-0 21514-2 0 9994 2 63492 97.3927 334.8766 0009113 100.0841 260.1444 15.58682409 56008 Ten-Koh2 1 66174U 25241A 26073.34423291 .00013614 00000-0 58534-3 0 9997 2 66174 51.6357 50.7100 0005742 187.4106 172.6788 15.22910308 21666 SPIRONE 1 66657U 25274H 26074.24646556 .00002567 00000-0 25139-3 0 9990 2 66657 97.7442 4.9338 0011610 334.4524 25.6120 14.93110904 16203 K-HERO 1 66660U 25274L 26074.27823078 .00003219 00000-0 31023-3 0 9997 2 66660 97.7446 5.0545 0013407 337.9388 22.1253 14.93562950 16217 SNUGLITE-III DURI 1 66661U 25274M 26074.26976775 .00002493 00000-0 24097-3 0 9996 2 66661 97.7441 5.0619 0014090 338.4102 21.6522 14.93643714 16215 SilverSat 1 66909U 98067XV 26074.17151702 .00265810 00000-0 17149-2 0 9999 2 66909 51.6239 36.7379 0005444 117.7755 242.3797 15.74772085 16055 SAKHACUBE-CHOLBON 1 67290U 25313AU 26074.26764304 .00012674 00000-0 54030-3 0 9994 2 67290 97.4004 150.5785 0008574 333.5117 26.5680 15.23042767 11677 RS95S (QMR-KWT-2) 1 67291U 25313AV 26074.25340807 .00017049 00000-0 71184-3 0 9992 2 67291 97.4001 150.5968 0008253 331.5088 28.5697 15.23683468 11676 IO-86 1 40931U 25360.30710720 .00000000 00000-0 12800-3 0 00 2 40931 6.0006 332.5373 0012733 338.8432 8.1437 14.79075515 01